EHI
27 30 31 25 16 10 7 5 5 7 9 9 9 9 10 9 8 8 8 12 14 15 14 11 10 9 8 9 9 7 5 5 5 3 3 3 2 1 0 0 0 0 0
32 32 33 31 25 21 19 14 13 16 16 14 13 14 14 14 13 10 7 8 10 11 11 12 11 9 8 9 8 6 5 5 5 4 3 3 2 1 0 0 0 0 0
36 36 37 36 33 34 35 30 27 28 24 19 17 15 15 15 14 11 7 6 7 7 7 8 9 9 9 9 9 8 7 6 6 5 3 3 3 2 1 1 1 1 1
34 37 37 35 35 38 39 36 33 32 26 20 15 11 10 10 8 7 6 7 7 6 4 4 5 7 9 10 10 10 10 8 6 5 3 3 3 3 2 2 2 2 2
28 30 31 30 31 32 31 29 28 26 20 15 9 6 5 5 5 5 6 7 7 5 3 2 2 5 7 8 8 7 7 7 5 4 3 3 3 2 2 2 3 3 3
22 22 23 25 25 23 22 22 19 16 12 8 4 3 3 4 5 7 7 7 6 4 2 2 2 3 3 3 2 2 3 4 3 3 2 2 1 1 1 1 1 2 2
16 16 18 20 21 21 20 19 14 9 6 4 2 1 2 3 4 6 6 4 3 1 1 1 1 1 1 0 0 0 1 1 1 1 1 1 0 0 0 0 0 1 1
12 12 14 15 18 19 19 17 12 6 3 2 1 1 1 1 1 2 3 2 1 1 0 0 0 0 0 0 0 0 0 0 0 0 0 0 0 0 0 0 0 0 0
8 9 9 10 12 13 13 11 8 4 1 1 1 0 0 0 0 0 1 1 1 1 0 0 0 0 0 0 0 0 0 0 0 0 0 0 0 0 0 0 0 0 0
5 6 7 7 7 6 6 5 3 1 0 0 0 0 0 0 0 0 0 0 0 0 0 0 0 0 0 0 0 0 0 0 0 0 0 0 0 0 0 0 0 0 0
2 3 4 4 4 3 3 2 1 0 0 0 0 0 0 0 0 0 0 0 0 0 0 0 0 0 0 0 0 0 0 0 0 0 0 0 0 0 0 0 0 0 0
0 1 1 1 1 1 1 1 1 0 0 0 0 0 0 0 0 0 0 0 0 0 0 0 0 0 0 0 0 0 0 0 0 0 0 0 0 0 0 0 0 0 0
0 0 0 0 0 0 0 0 0 0 0 0 0 0 0 0 0 0 0 0 0 0 0 0 0 0 0 0 0 0 0 0 0 0 0 0 0 0 0 0 0 0 0
0 0 0 0 0 0 0 0 0 0 0 0 0 0 0 0 0 0 0 0 0 0 0 0 0 0 0 0 0 0 0 0 0 0 0 0 0 0 0 0 0 0 0
0 0 0 0 0 0 0 0 0 0 0 0 0 0 0 0 0 0 0 0 0 0 0 0 0 0 0 0 0 0 0 0 0 0 0 0 0 0 0 0 0 0 0
0 0 0 0 0 0 0 0 0 0 0 0 0 0 0 0 0 0 0 0 0 0 0 0 0 0 0 0 0 0 0 0 0 0 0 0 0 0 0 0 0 0 0
0 0 0 0 0 0 0 0 0 0 0 0 0 0 0 0 0 0 0 0 0 0 0 0 0 0 0 0 0 0 0 0 0 0 0 0 0 0 0 0 0 0 0
0 0 0 0 0 0 0 0 0 0 0 0 0 0 0 0 0 0 0 0 0 0 0 0 0 0 0 0 0 0 0 0 0 0 0 0 0 0 0 0 0 0 0
0 0 0 0 0 0 0 0 0 0 0 0 0 0 0 0 0 0 0 0 0 0 0 0 0 0 0 0 0 0 0 0 0 0 0 0 0 0 0 0 0 0 0
0 0 0 0 0 0 0 0 0 0 0 0 0 0 0 0 0 0 0 0 0 0 0 0 0 0 0 0 0 0 0 0 0 0 0 0 0 0 0 0 0 0 0
0 0 0 0 0 0 0 0 0 0 0 0 0 0 0 0 0 0 0 0 0 0 0 0 0 0 0 0 0 0 0 0 0 0 0 0 0 0 0 0 0 0 0
0 0 0 0 0 0 0 0 0 0 0 0 0 0 0 0 0 0 0 0 0 0 0 0 0 0 0 0 0 0 0 0 0 0 0 0 0 0 0 0 0 0 0
0 0 0 0 0 0 0 0 0 0 0 0 0 0 0 0 0 0 0 0 0 0 0 0 0 0 0 0 0 0 0 0 0 0 0 0 0 0 0 0 0 0 0
0 0 0 0 0 0 0 0 0 0 0 0 0 0 0 0 0 0 0 0 0 0 0 0 0 0 0 0 0 0 0 0 0 0 0 0 0 0 0 0 0 0 0
0 0 0 0 0 0 0 0 0 0 0 0 0 0 0 0 0 0 0 0 0 0 0 0 0 0 0 0 0 0 0 0 0 0 0 0 0 0 0 0 0 0 0
0 0 0 0 0 0 0 0 0 0 0 0 0 0 0 0 0 0 0 0 0 0 0 0 0 0 0 0 0 0 0 0 0 0 0 0 0 0 0 0 0 0 0
Wind_Speed
4 4 4 5 6 5 5 5 5 6 5 3 2 1 1 2 4 5 5 8 8 6 5 4 2 2 3 3 3 4 4 5 6 5 5 5 5 5 6 6 6 5 5
2 2 3 3 2 3 3 2 2 2 1 1 1 2 3 4 4 5 5 6 7 6 6 5 4 3 2 1 0 0 1 2 3 4 4 5 5 5 6 6 6 6 6
1 1 1 1 1 0 2 2 1 1 1 1 2 2 3 4 4 4 4 4 5 7 9 8 8 7 6 6 5 4 4 3 2 1 1 2 3 4 5 6 6 6 6
1 1 1 1 1 1 1 1 1 1 1 1 2 2 3 3 4 4 4 5 4 5 7 10 10 11 11 11 11 10 10 8 7 6 5 4 3 2 2 4 5 6 7
1 2 1 1 1 0 0 1 1 1 1 2 1 2 2 3 3 4 5 6 6 6 6 9 12 13 14 14 14 13 12 11 10 9 8 7 7 6 4 3 4 5 5
2 1 2 2 2 1 1 1 2 2 2 1 1 3 3 3 4 4 5 6 6 7 7 7 6 10 16 16 15 14 14 13 12 12 11 11 9 8 7 5 4 4 4
3 2 1 1 2 2 2 2 2 3 2 2 2 2 3 5 5 5 5 6 6 7 7 7 5 5 6 14 15 14 13 13 12 12 12 12 12 10 9 8 7 5 4
4 2 2 2 2 2 3 2 1 2 2 1 1 2 3 2 4 5 5 5 6 5 7 8 6 6 5 4 10 14 13 12 12 12 12 12 12 12 12 11 9 8 5
6 5 5 4 3 3 4 4 3 3 2 2 3 1 1 2 4 3 4 5 5 4 5 5 6 6 6 5 5 10 12 12 12 12 12 12 12 12 12 13 13 11 9
9 8 7 7 6 6 5 5 5 4 3 3 2 3 3 2 3 3 2 3 4 5 5 5 5 5 5 4 6 10 11 11 11 11 11 11 10 10 10 10 11 11 10
10 10 9 8 8 7 8 8 7 7 5 4 3 2 2 3 3 3 3 3 2 3 3 3 3 3 3 3 4 6 7 7 8 9 9 10 10 10 10 10 10 10 9
8 10 10 9 8 8 9 9 8 10 7 7 6 5 4 3 2 2 2 3 3 3 3 2 2 2 2 3 5 5 4 4 4 6 7 8 8 9 9 10 10 11 10
7 9 8 8 7 8 8 8 8 8 8 7 6 5 5 4 3 2 2 2 2 3 3 2 2 2 2 2 3 2 1 1 1 3 4 6 7 8 8 9 9 10 10
7 7 8 8 8 8 8 7 7 6 6 6 7 6 4 4 4 4 3 2 1 2 3 2 2 3 1 1 2 2 2 3 2 1 2 4 5 6 7 8 9 9 9
7 8 8 7 7 7 7 7 6 7 7 6 6 6 4 3 4 3 3 3 2 1 2 2 2 3 1 1 1 1 1 5 5 4 3 3 4 5 6 7 7 8 8
7 7 7 7 7 7 7 6 6 6 6 5 5 6 6 5 4 3 3 3 4 3 2 2 2 2 2 2 0 2 4 5 6 6 5 5 4 4 5 6 7 7 7
7 7 6 6 7 7 6 6 6 6 6 6 6 6 5 5 5 5 4 4 4 4 3 2 2 1 0 1 1 3 5 2 2 7 7 6 5 4 4 5 5 5 6
6 6 6 6 6 6 5 5 6 6 6 6 6 6 6 5 5 4 4 4 3 2 3 2 2 0 1 1 2 4 3 3 2 7 9 7 6 5 4 4 3 4 4
5 6 6 7 6 6 6 6 6 6 6 6 6 6 6 6 6 5 4 4 3 4 2 2 2 1 1 1 3 4 3 2 4 2 7 7 7 6 5 4 3 3 3
6 6 6 7 7 8 8 7 6 6 5 5 5 5 6 6 5 5 4 5 5 4 3 2 2 2 2 3 3 3 3 3 3 3 2 1 5 6 5 5 4 3 3
7 5 6 7 7 8 8 8 5 5 4 4 4 4 5 5 3 3 4 4 5 4 4 4 3 3 3 3 4 3 4 3 3 2 3 2 1 2 3 5 5 4 3
6 6 7 8 8 7 8 11 9 5 4 4 4 3 4 3 1 2 3 4 3 3 4 4 3 4 4 4 3 4 3 4 3 3 3 3 1 1 2 3 4 5 4
6 5 6 7 7 7 9 10 11 6 3 3 3 4 4 6 7 6 5 5 5 7 6 2 3 4 4 3 4 5 4 4 4 4 2 3 2 2 1 2 6 5 4
4 4 5 6 6 6 8 9 11 5 0 2 3 4 5 6 7 7 7 6 3 1 4 4 3 3 3 3 3 4 5 5 4 3 1 2 2 2 1 2 5 6 5
4 4 4 5 6 5 6 8 9 4 1 3 5 6 6 5 7 9 6 6 5 5 3 4 6 7 9 9 5 3 4 4 4 3 2 2 2 2 1 1 3 7 7
3 4 5 5 5 5 5 8 10 4 3 3 4 5 7 6 6 8 5 5 5 5 7 7 6 7 7 7 7 5 3 3 3 3 3 2 2 2 2 1 1 3 4
Wind_Direction
205 182 179 177 190 192 198 202 207 207 210 209 198 196 28 45 84 97 116 125 126 129 133 145 169 207 218 226 229 233 232 232 231 227 220 220 226 231 230 230 230 229 230
221 198 179 183 198 175 170 211 211 168 153 93 63 47 40 43 57 85 110 123 117 109 101 91 79 69 71 74 76 207 230 240 243 236 233 228 225 229 232 233 233 233 230
240 249 164 98 294 158 144 147 167 101 113 113 75 58 60 45 43 57 77 95 102 93 84 78 70 63 62 61 58 57 56 55 47 16 307 252 236 233 235 238 237 236 237
200 163 139 155 237 359 91 121 110 83 77 78 74 65 76 70 56 51 55 67 84 85 83 80 73 68 65 61 59 58 57 56 54 46 33 20 356 313 273 258 246 239 237
138 143 163 195 153 105 65 165 118 128 111 93 95 78 73 72 68 65 67 65 73 80 80 81 75 71 64 59 57 55 54 52 49 45 39 34 31 28 11 320 277 260 251
67 122 161 154 143 161 158 93 118 124 113 108 99 75 57 67 68 62 69 71 68 74 73 71 70 71 70 63 56 52 50 49 49 48 43 38 33 27 17 3 336 305 279
63 80 83 117 134 137 131 136 143 132 111 107 113 99 71 61 61 53 56 66 66 67 71 67 62 60 74 65 56 52 49 48 48 47 43 38 34 29 24 19 10 354 330
62 77 62 70 87 104 96 87 105 133 123 96 148 153 141 114 66 57 59 66 65 64 67 70 64 58 64 64 59 53 46 43 44 43 39 36 34 32 29 24 12 3 349
54 57 61 61 64 77 80 70 55 83 114 89 43 47 129 142 121 73 59 65 66 67 69 75 71 64 71 69 61 51 48 42 39 38 37 34 32 30 29 28 25 18 13
51 49 57 62 65 67 68 65 56 57 75 94 79 58 60 71 120 124 94 76 79 74 68 66 71 69 72 81 77 64 52 43 38 34 31 28 25 23 21 19 19 17 13
53 52 54 60 64 65 64 60 56 53 55 59 63 70 69 61 56 109 129 137 117 99 100 90 87 82 87 88 88 70 57 47 38 28 22 18 14 13 11 10 8 7 4
58 56 59 60 61 64 66 64 61 59 57 56 52 49 53 56 49 61 105 138 132 127 112 99 99 80 79 81 79 80 67 56 37 23 13 7 4 3 3 2 3 3 1
64 57 61 62 63 67 70 71 69 64 58 58 54 49 50 43 35 37 76 101 121 138 131 130 116 94 70 98 105 80 108 124 47 12 357 353 352 353 355 355 355 356 357
74 69 67 68 67 69 72 71 72 71 66 63 57 48 52 39 33 36 41 49 77 126 106 101 107 91 48 95 120 268 192 200 207 258 313 325 335 342 346 348 348 349 349
82 74 69 68 67 68 70 71 69 65 61 56 52 46 47 46 36 29 30 32 28 60 109 124 103 91 32 55 167 293 237 216 221 228 253 280 305 321 330 335 339 342 341
81 81 76 73 70 67 67 72 75 72 76 71 65 50 38 26 27 27 25 28 29 30 59 79 81 84 48 349 204 306 287 242 229 220 233 251 269 295 316 330 336 337 340
79 81 81 79 76 71 68 73 79 72 71 66 66 67 61 42 24 22 19 35 37 31 30 36 61 110 117 297 314 297 285 243 194 204 219 234 245 262 286 308 320 332 336
83 83 79 78 81 77 69 69 75 75 72 69 62 56 48 47 39 28 12 31 37 30 25 10 349 350 291 274 294 288 308 353 255 206 212 223 232 246 261 281 295 307 321
81 80 76 71 69 67 66 67 68 67 69 66 60 57 53 44 33 19 17 19 9 15 356 333 319 306 301 350 323 314 330 319 316 187 206 220 227 235 244 248 265 284 303
78 75 76 74 67 56 47 44 65 69 69 72 68 65 61 51 34 1 17 20 6 348 334 325 331 349 7 359 353 340 345 341 331 343 334 199 204 214 226 233 244 260 290
86 78 77 76 72 61 38 26 21 72 66 69 71 77 87 84 60 5 16 2 358 351 350 356 356 16 15 3 358 338 342 327 326 356 338 322 188 193 206 221 229 241 263
81 79 75 73 65 57 34 29 22 16 46 54 48 48 116 112 67 308 303 305 306 329 353 347 358 2 0 359 347 338 344 343 331 334 336 318 332 222 209 181 202 212 234
84 83 85 84 78 54 32 22 14 348 30 56 40 22 41 59 35 10 341 296 268 248 242 297 327 334 339 359 347 336 336 327 301 295 313 308 313 307 240 150 187 202 222
92 89 89 93 89 62 32 16 354 323 360 83 67 49 52 58 31 6 338 339 332 275 229 229 281 309 330 340 328 311 305 307 297 296 316 305 315 317 341 152 194 205 217
105 101 93 94 94 75 32 15 355 318 53 79 77 58 45 59 26 5 348 354 6 5 346 306 282 282 287 287 282 307 316 333 329 324 344 338 326 322 307 185 198 212 225
109 106 94 90 92 83 41 21 2 357 31 59 98 95 64 42 16 8 355 353 358 346 334 324 302 277 265 263 249 229 270 312 322 324 339 350 336 338 323 291 232 200 227